Location: Sternwarte ZA, Rosenfeld-Brittheim
(48.2889°N, 8.6789°E)
Time: 03:57:00
(UTC+02:00)

ISS - Pass Details

Date: 27 May 2017
Orbit: 401 x 408 km, 51.6° (Epoch: 25 June)

Event Time Altitude Azimuth Distance (km) Brightness Sun altitude
Rises 02:29:34 0° 292° (WNW) 2,339 0.1 -18.8°
Reaches altitude 10° 02:31:40 10° 292° (WNW) 1,474 -0.9 -18.7°
Maximum altitude 02:34:58 89° 209° (SSW) 412 -3.9 -18.5°
Drops below altitude 10° 02:38:16 10° 114° (ESE) 1,468 -1.1 -18.4°
Sets 02:40:20 0° 114° (ESE) 2,319 0.0 -18.3°
